Regional Weather Roundup
Issued by NWS

Home | Current Version | Previous Version | Text Only | Print | Product List | Glossary Off
Versions: 1 2 3 4 5 6 7 8 9 10 11 12 13 14 15 16 17 18 19 20 21 22 23 24 25 26 27 28 29 30 31 32 33 34 35 36 37 38 39 40 41 42 43 44 45 46 47 48 49 50

000
ASUS43 KMKX 011621
RWRWI

WISCONSIN REGIONAL WEATHER ROUNDUP
NATIONAL WEATHER SERVICE MILWAUKEE/SULLIVAN WI
1100 AM CDT SAT AUG 01 2015

NOTE: "FAIR" INDICATES FEW OR NO CLOUDS BELOW 12,000 FEET WITH NO
SIGNIFICANT WEATHER AND/OR OBSTRUCTIONS TO VISIBILITY.

WIZ001-002-006>008-014>016-023>028-011700-
NORTHWEST WISCONSIN

CITY           SKY/WX    TMP DP  RH WIND       PRES   REMARKS
SUPERIOR ARPT  SUNNY     76  57  51 W9        29.91S
ASHLAND        SUNNY     75  55  49 NW10      29.92S
HAYWARD        SUNNY     75  51  43 VRB7      29.95S
SIREN          SUNNY     76  54  47 W8        29.96S
CUMBERLAND     SUNNY     72  50  46 W6        29.97S
RICE LAKE      SUNNY     74  53  47 W7        29.98S
CHETEK         SUNNY     75  53  45 CALM      29.96S
LADYSMITH      SUNNY     75  51  43 NW8       29.98S
EAU CLAIRE     SUNNY     77  53  43 W3        29.96S
MENOMONIE      SUNNY     76  52  43 S3        29.97S
NEW RICHMOND   SUNNY     78  52  40 W6        29.98R
OSCEOLA        SUNNY     77  57  50 W3        29.99S
$$

WIZ003>005-009-010-017-018-011700-
NORTH CENTRAL WISCONSIN

CITY           SKY/WX    TMP DP  RH WIND       PRES   REMARKS
MANITOWISH WTR SUNNY     71  53  54 NW12      29.94S
ARBOR VITAE    MOSUNNY   72  56  56 NW8G16    29.94S
WOODRUFF       MOSUNNY   72  56  56 NW8G16    29.94S
RHINELANDER    SUNNY     72  54  53 NW8       29.96S
EAGLE RIVER    PTSUNNY   71  50  47 NW8       29.94R
LAND O LAKES   PTSUNNY   71  51  48 NW6       29.94S
PHILLIPS       SUNNY     72  54  53 NW7       29.95S
TOMAHAWK       SUNNY     71  53  53 NW9G18    29.96S
MEDFORD        SUNNY     73  53  49 NW8       29.97S
MERRILL        NOT AVBL
$$

WIZ029-030-035-036-043>047-011700-
CENTRAL WISCONSIN

CITY           SKY/WX    TMP DP  RH WIND       PRES   REMARKS
WAUSAU         SUNNY     76  48  37 NW13G22   29.94S
MOSINEE        MOSUNNY   73  50  43 NW13G21   29.98R
MARSHFIELD     MOSUNNY   76  48  37 N13       29.97S
STEVENS POINT  SUNNY     74  50  43 NW10      29.97S
WAUPACA        MOSUNNY   80  49  33 NW9       29.96R
WAUTOMA        MOSUNNY   80  49  33 NW9       29.97S
WISC RAPIDS    MOSUNNY   78  50  37 NW8       29.98S
CAMP DOUGLAS   MOSUNNY   77  57  50 N7        29.98S
$$

WIZ011>013-019>022-031-037>040-048>050-011700-
NORTHEAST WISCONSIN

CITY           SKY/WX    TMP DP  RH WIND       PRES   REMARKS
ANTIGO         SUNNY     72  55  55 NW12      29.95F
SHAWANO        SUNNY     76  53  44 W9        29.93S
OCONTO         SUNNY     75  54  46 NW7       29.89F
STURGEON BAY   SUNNY     73  54  49 W13       29.93S
GREEN BAY      SUNNY     76  54  46 NW14      29.92S
MANITOWOC      SUNNY     77  49  37 MISG      29.92S
APPLETON       MOSUNNY   75  46  35 NW12      29.95S
CLINTONVILLE   SUNNY     77  46  33 NW10G20   29.94R
OSHKOSH        MOSUNNY   77  51  40 NW12      29.95R
$$

WIZ032>034-041-042-053>061-011700-
SOUTHWEST WISCONSIN

CITY           SKY/WX    TMP DP  RH WIND       PRES   REMARKS
LA CROSSE      SUNNY     79  57  46 W3        29.97R HX  80
SPARTA         SUNNY     78  48  34 W3        29.98S
VIROQUA        SUNNY     76  62  60 SW5       30.00S
BOSCOBEL       SUNNY     81  63  54 SW8       29.98S HX  82
PRAIRIE DU CHI SUNNY     81  61  51 W9        29.98S HX  81
PLATTEVILLE    MOSUNNY   78  63  58 W9        30.00F HX  80
$$

WIZ056-057-062-063-064-067-068-011700-
SOUTH CENTRAL WISCONSIN

CITY           SKY/WX    TMP DP  RH WIND       PRES   REMARKS
REEDSBURG      SUNNY     77  52  41 N5        29.97F
BARABOO/DELLS  PTSUNNY   76  51  41 CALM      29.98F
LONE ROCK      MOSUNNY   79  60  52 N5        29.99S HX  80
MINERAL POINT  MOSUNNY   79  59  50 W12       30.01S HX  80
MADISON        PTSUNNY   76  59  55 CALM      29.99R
MIDDLETON      PTSUNNY   78  57  49 NW3       30.00S
WATERTOWN      MOSUNNY   74  58  58 W3        29.98S
MONROE         SUNNY     77  55  47 W9        30.00S
JANESVILLE     PTSUNNY   81  57  44 W9        29.99R HX  81
$$

WIZ051-052-058>065-066-070>072-011700-
SOUTHEAST WISCONSIN

CITY           SKY/WX    TMP DP  RH WIND       PRES   REMARKS
MILWAUKEE      PTSUNNY   80  51  36 NW13      29.96S HX  80
WAUKESHA       MOSUNNY   70  55  60 W13       30.02R
MILWAUKEE/TIMM PTSUNNY   75  52  43 W10       29.98R
RACINE         SUNNY     80  53  39 NW10      29.98S HX  80
BURLINGTON     MOSUNNY   76  54  45 W6        29.98S
KENOSHA        SUNNY     80  58  46 NW9       29.98S HX  80
FOND DU LAC    MOSUNNY   78  52  40 W14       29.96R
SHEBOYGAN      MOSUNNY   78  52  40 W10       29.94S
WEST BEND      CLOUDY    73  50  43 W10       29.97S
JUNEAU         CLOUDY    70  60  69 W3        29.99F
$$

LSZ147-162-011700-
LAKE SUPERIOR

STATION/POSITION TIME  TEMP    WIND        PRES    WAVE
                       AIR SEA DIR/SP/G            HT/PER
                 (UTC) (F)     (DEG/KT/KT) (MB)    (FT/S)
W MID LAKE BUOY  1550   57 54  240/ 12/ 12 1011.4F   1/ 4
DEVILS ISLAND    1600   63     230/ 14/ 17 1012.0F
PORT WING        1500   68     260/  7/ 11 1013.2
SAXON HARBOR     1500   71                 1012.5F
$$

LMZ867-665-643>646-011700-
LAKE MICHIGAN

STATION/POSITION TIME  TEMP    WIND        PRES    WAVE
                       AIR SEA DIR/SP/G            HT/PER
                 (UTC) (F)     (DEG/KT/KT) (MB)    (FT/S)
CHAMBERS ISLAND  1500   71     250/  3/  7 1012.2R
S GREEN BAY BUOY 1500   65 69  240/  8/  8 1014.0
N MID LAKE BUOY  1550   66 68  260/  8/  8 1011.4R   1/ 3
NORTHPORT PIER   1500   68     310/  8/ 11 1011.9S
SISTER BAY       1429   74     300/  6/  7   N/A
ALGOMA LAKESHORE 1512          270/  9/ 14   N/A
KEWAUNEE LAKESHO 1600   75     290/  7/ 14 1012.3S
SHEBOYGAN LAKESH 1600   76     290/ 13/ 16 1013.8R
PORT WASHINGTON  1500   78     280/  7/ 10 1014.6F
ATWATER BUOY     1600   71 66  310/  4/  6 1016.2R
MILWAUKEE LAKESH 1600   76     310/  7/ 10   N/A
KENOSHA   LAKESH 1600   78     300/  9/ 13 1014.2F
$$

TC  - TEMPERATURE IN CELSIUS
VSB - VISIBILITY IN STATUTE MILES
WCI - WIND CHILL INDEX
HX  - HEAT INDEX



USA.gov is the U.S. government's official web portal to all federal, state and local government web resources and services.